Terminal Aerodrome Forecast
Issued by NWS Blacksburg, VA

Home | Current Version | Previous Version | Text Only | Print | Product List | Glossary On
Versions: 1 2 3 4 5 6 7 8 9 10 11 12 13 14 15 16 17 18 19 20 21 22 23 24 25 26 27 28 29 30 31 32 33 34 35 36
000
FTUS41 KRNK 261723
TAFROA
TAF
KROA 261723Z 2618/2718 13009KT P6SM VCSH OVC008
     FM262100 16007KT P6SM SCT008 OVC019
     FM262300 17007KT P6SM VCSH BKN025 OVC045
     FM270100 18005KT 5SM SHRA BR OVC015
     FM270600 29007KT P6SM BKN025 OVC100
     FM271400 10004KT P6SM SCT007 OVC015=

USA.gov is the U.S. government's official web portal to all federal, state and local government web resources and services.